Index of /20260430/WXO-DD/model_rdps/10km/00/057
Name Last modified Size Description
Parent Directory -
20260430T00Z_MSC_RDPS_AbsoluteVorticity_IsbL-0250_RLatLon0.09_PT057H.grib2 2026-04-30 02:56 599K
20260430T00Z_MSC_RDPS_AbsoluteVorticity_IsbL-0500_RLatLon0.09_PT057H.grib2 2026-04-30 02:56 562K
20260430T00Z_MSC_RDPS_AbsoluteVorticity_IsbL-0700_RLatLon0.09_PT057H.grib2 2026-04-30 02:56 617K
20260430T00Z_MSC_RDPS_AbsoluteVorticity_IsbL-0850_RLatLon0.09_PT057H.grib2 2026-04-30 02:56 774K
20260430T00Z_MSC_RDPS_AirTemp_AGL-120m_RLatLon0.09_PT057H.grib2 2026-04-30 02:56 378K
20260430T00Z_MSC_RDPS_AirTemp_AGL-2m_RLatLon0.09_PT057H.grib2 2026-04-30 02:56 627K
20260430T00Z_MSC_RDPS_AirTemp_AGL-40m_RLatLon0.09_PT057H.grib2 2026-04-30 02:56 395K
20260430T00Z_MSC_RDPS_AirTemp_AGL-80m_RLatLon0.09_PT057H.grib2 2026-04-30 02:56 385K
20260430T00Z_MSC_RDPS_AirTemp_IsbL-0001_RLatLon0.09_PT057H.grib2 2026-04-30 02:56 297K
20260430T00Z_MSC_RDPS_AirTemp_IsbL-0005_RLatLon0.09_PT057H.grib2 2026-04-30 02:56 287K
20260430T00Z_MSC_RDPS_AirTemp_IsbL-0010_RLatLon0.09_PT057H.grib2 2026-04-30 02:56 297K
20260430T00Z_MSC_RDPS_AirTemp_IsbL-0020_RLatLon0.09_PT057H.grib2 2026-04-30 02:56 405K
20260430T00Z_MSC_RDPS_AirTemp_IsbL-0030_RLatLon0.09_PT057H.grib2 2026-04-30 02:56 333K
20260430T00Z_MSC_RDPS_AirTemp_IsbL-0050_RLatLon0.09_PT057H.grib2 2026-04-30 02:56 312K
20260430T00Z_MSC_RDPS_AirTemp_IsbL-0100_RLatLon0.09_PT057H.grib2 2026-04-30 02:56 390K
20260430T00Z_MSC_RDPS_AirTemp_IsbL-0150_RLatLon0.09_PT057H.grib2 2026-04-30 02:56 416K
20260430T00Z_MSC_RDPS_AirTemp_IsbL-0175_RLatLon0.09_PT057H.grib2 2026-04-30 02:56 408K
20260430T00Z_MSC_RDPS_AirTemp_IsbL-0200_RLatLon0.09_PT057H.grib2 2026-04-30 02:56 412K
20260430T00Z_MSC_RDPS_AirTemp_IsbL-0225_RLatLon0.09_PT057H.grib2 2026-04-30 02:56 410K
20260430T00Z_MSC_RDPS_AirTemp_IsbL-0250_RLatLon0.09_PT057H.grib2 2026-04-30 02:56 416K
20260430T00Z_MSC_RDPS_AirTemp_IsbL-0275_RLatLon0.09_PT057H.grib2 2026-04-30 02:56 399K
20260430T00Z_MSC_RDPS_AirTemp_IsbL-0300_RLatLon0.09_PT057H.grib2 2026-04-30 02:56 431K
20260430T00Z_MSC_RDPS_AirTemp_IsbL-0350_RLatLon0.09_PT057H.grib2 2026-04-30 02:56 421K
20260430T00Z_MSC_RDPS_AirTemp_IsbL-0400_RLatLon0.09_PT057H.grib2 2026-04-30 02:56 423K
20260430T00Z_MSC_RDPS_AirTemp_IsbL-0450_RLatLon0.09_PT057H.grib2 2026-04-30 02:56 396K
20260430T00Z_MSC_RDPS_AirTemp_IsbL-0500_RLatLon0.09_PT057H.grib2 2026-04-30 02:56 407K
20260430T00Z_MSC_RDPS_AirTemp_IsbL-0550_RLatLon0.09_PT057H.grib2 2026-04-30 02:56 424K
20260430T00Z_MSC_RDPS_AirTemp_IsbL-0600_RLatLon0.09_PT057H.grib2 2026-04-30 02:56 441K
20260430T00Z_MSC_RDPS_AirTemp_IsbL-0650_RLatLon0.09_PT057H.grib2 2026-04-30 02:56 456K
20260430T00Z_MSC_RDPS_AirTemp_IsbL-0700_RLatLon0.09_PT057H.grib2 2026-04-30 02:56 481K
20260430T00Z_MSC_RDPS_AirTemp_IsbL-0750_RLatLon0.09_PT057H.grib2 2026-04-30 02:56 519K
20260430T00Z_MSC_RDPS_AirTemp_IsbL-0800_RLatLon0.09_PT057H.grib2 2026-04-30 02:56 451K
20260430T00Z_MSC_RDPS_AirTemp_IsbL-0850_RLatLon0.09_PT057H.grib2 2026-04-30 02:56 501K
20260430T00Z_MSC_RDPS_AirTemp_IsbL-0875_RLatLon0.09_PT057H.grib2 2026-04-30 02:56 521K
20260430T00Z_MSC_RDPS_AirTemp_IsbL-0900_RLatLon0.09_PT057H.grib2 2026-04-30 02:56 528K
20260430T00Z_MSC_RDPS_AirTemp_IsbL-0925_RLatLon0.09_PT057H.grib2 2026-04-30 02:56 524K
20260430T00Z_MSC_RDPS_AirTemp_IsbL-0950_RLatLon0.09_PT057H.grib2 2026-04-30 02:56 528K
20260430T00Z_MSC_RDPS_AirTemp_IsbL-0970_RLatLon0.09_PT057H.grib2 2026-04-30 02:56 524K
20260430T00Z_MSC_RDPS_AirTemp_IsbL-0985_RLatLon0.09_PT057H.grib2 2026-04-30 02:56 511K
20260430T00Z_MSC_RDPS_AirTemp_IsbL-1000_RLatLon0.09_PT057H.grib2 2026-04-30 02:56 495K
20260430T00Z_MSC_RDPS_AirTemp_IsbL-1015_RLatLon0.09_PT057H.grib2 2026-04-30 02:56 489K
20260430T00Z_MSC_RDPS_Albedo_Sfc_RLatLon0.09_PT057H.grib2 2026-04-30 02:56 161K
20260430T00Z_MSC_RDPS_CAPE_Sfc_RLatLon0.09_PT057H.grib2 2026-04-30 02:56 1.5M
20260430T00Z_MSC_RDPS_CIN_Sfc_RLatLon0.09_PT057H.grib2 2026-04-30 02:56 1.1M
20260430T00Z_MSC_RDPS_CloudWater_EAtm_RLatLon0.09_PT057H.grib2 2026-04-30 02:56 220K
20260430T00Z_MSC_RDPS_ConvectivePrecip-Accum_Sfc_RLatLon0.09_PT057H.grib2 2026-04-30 02:56 1.1M
20260430T00Z_MSC_RDPS_DewPointDepression_AGL-2m_RLatLon0.09_PT057H.grib2 2026-04-30 02:56 393K
20260430T00Z_MSC_RDPS_DewPointDepression_IsbL-0001_RLatLon0.09_PT057H.grib2 2026-04-30 02:56 193
20260430T00Z_MSC_RDPS_DewPointDepression_IsbL-0005_RLatLon0.09_PT057H.grib2 2026-04-30 02:56 193
20260430T00Z_MSC_RDPS_DewPointDepression_IsbL-0010_RLatLon0.09_PT057H.grib2 2026-04-30 02:56 193
20260430T00Z_MSC_RDPS_DewPointDepression_IsbL-0020_RLatLon0.09_PT057H.grib2 2026-04-30 02:56 193
20260430T00Z_MSC_RDPS_DewPointDepression_IsbL-0030_RLatLon0.09_PT057H.grib2 2026-04-30 02:56 193
20260430T00Z_MSC_RDPS_DewPointDepression_IsbL-0050_RLatLon0.09_PT057H.grib2 2026-04-30 02:56 79K
20260430T00Z_MSC_RDPS_DewPointDepression_IsbL-0100_RLatLon0.09_PT057H.grib2 2026-04-30 02:56 126K
20260430T00Z_MSC_RDPS_DewPointDepression_IsbL-0150_RLatLon0.09_PT057H.grib2 2026-04-30 02:56 150K
20260430T00Z_MSC_RDPS_DewPointDepression_IsbL-0175_RLatLon0.09_PT057H.grib2 2026-04-30 02:56 184K
20260430T00Z_MSC_RDPS_DewPointDepression_IsbL-0200_RLatLon0.09_PT057H.grib2 2026-04-30 02:56 218K
20260430T00Z_MSC_RDPS_DewPointDepression_IsbL-0225_RLatLon0.09_PT057H.grib2 2026-04-30 02:56 254K
20260430T00Z_MSC_RDPS_DewPointDepression_IsbL-0250_RLatLon0.09_PT057H.grib2 2026-04-30 02:56 291K
20260430T00Z_MSC_RDPS_DewPointDepression_IsbL-0275_RLatLon0.09_PT057H.grib2 2026-04-30 02:56 301K
20260430T00Z_MSC_RDPS_DewPointDepression_IsbL-0300_RLatLon0.09_PT057H.grib2 2026-04-30 02:56 319K
20260430T00Z_MSC_RDPS_DewPointDepression_IsbL-0350_RLatLon0.09_PT057H.grib2 2026-04-30 02:56 325K
20260430T00Z_MSC_RDPS_DewPointDepression_IsbL-0400_RLatLon0.09_PT057H.grib2 2026-04-30 02:56 339K
20260430T00Z_MSC_RDPS_DewPointDepression_IsbL-0450_RLatLon0.09_PT057H.grib2 2026-04-30 02:56 349K
20260430T00Z_MSC_RDPS_DewPointDepression_IsbL-0500_RLatLon0.09_PT057H.grib2 2026-04-30 02:56 354K
20260430T00Z_MSC_RDPS_DewPointDepression_IsbL-0550_RLatLon0.09_PT057H.grib2 2026-04-30 02:56 363K
20260430T00Z_MSC_RDPS_DewPointDepression_IsbL-0600_RLatLon0.09_PT057H.grib2 2026-04-30 02:56 374K
20260430T00Z_MSC_RDPS_DewPointDepression_IsbL-0650_RLatLon0.09_PT057H.grib2 2026-04-30 02:56 379K
20260430T00Z_MSC_RDPS_DewPointDepression_IsbL-0700_RLatLon0.09_PT057H.grib2 2026-04-30 02:56 387K
20260430T00Z_MSC_RDPS_DewPointDepression_IsbL-0750_RLatLon0.09_PT057H.grib2 2026-04-30 02:56 405K
20260430T00Z_MSC_RDPS_DewPointDepression_IsbL-0800_RLatLon0.09_PT057H.grib2 2026-04-30 02:56 440K
20260430T00Z_MSC_RDPS_DewPointDepression_IsbL-0850_RLatLon0.09_PT057H.grib2 2026-04-30 02:56 469K
20260430T00Z_MSC_RDPS_DewPointDepression_IsbL-0875_RLatLon0.09_PT057H.grib2 2026-04-30 02:56 470K
20260430T00Z_MSC_RDPS_DewPointDepression_IsbL-0900_RLatLon0.09_PT057H.grib2 2026-04-30 02:56 459K
20260430T00Z_MSC_RDPS_DewPointDepression_IsbL-0925_RLatLon0.09_PT057H.grib2 2026-04-30 02:56 444K
20260430T00Z_MSC_RDPS_DewPointDepression_IsbL-0950_RLatLon0.09_PT057H.grib2 2026-04-30 02:56 441K
20260430T00Z_MSC_RDPS_DewPointDepression_IsbL-0970_RLatLon0.09_PT057H.grib2 2026-04-30 02:56 435K
20260430T00Z_MSC_RDPS_DewPointDepression_IsbL-0985_RLatLon0.09_PT057H.grib2 2026-04-30 02:56 429K
20260430T00Z_MSC_RDPS_DewPointDepression_IsbL-1000_RLatLon0.09_PT057H.grib2 2026-04-30 02:56 424K
20260430T00Z_MSC_RDPS_DewPointDepression_IsbL-1015_RLatLon0.09_PT057H.grib2 2026-04-30 02:56 415K
20260430T00Z_MSC_RDPS_DewPoint_AGL-2m_RLatLon0.09_PT057H.grib2 2026-04-30 02:56 394K
20260430T00Z_MSC_RDPS_DownwardLongwaveRadiationFlux-Accum_Sfc_RLatLon0.09_PT057H.grib2 2026-04-30 02:56 398K
20260430T00Z_MSC_RDPS_DownwardShortwaveRadiationFlux-Accum_NTAtm_RLatLon0.09_PT057H.grib2 2026-04-30 02:56 148K
20260430T00Z_MSC_RDPS_DownwardShortwaveRadiationFlux-Accum_Sfc_RLatLon0.09_PT057H.grib2 2026-04-30 02:56 563K
20260430T00Z_MSC_RDPS_FreezingRain-Accum1h_Sfc_RLatLon0.09_PT057H.grib2 2026-04-30 02:56 44K
20260430T00Z_MSC_RDPS_FreezingRain-Accum3h_Sfc_RLatLon0.09_PT057H.grib2 2026-04-30 02:56 50K
20260430T00Z_MSC_RDPS_FreezingRain-Accum_Sfc_RLatLon0.09_PT057H.grib2 2026-04-30 02:56 191K
20260430T00Z_MSC_RDPS_GeopotentialHeight_IsbL-0001_RLatLon0.09_PT057H.grib2 2026-04-30 02:56 339K
20260430T00Z_MSC_RDPS_GeopotentialHeight_IsbL-0005_RLatLon0.09_PT057H.grib2 2026-04-30 02:56 305K
20260430T00Z_MSC_RDPS_GeopotentialHeight_IsbL-0010_RLatLon0.09_PT057H.grib2 2026-04-30 02:56 306K
20260430T00Z_MSC_RDPS_GeopotentialHeight_IsbL-0020_RLatLon0.09_PT057H.grib2 2026-04-30 02:56 306K
20260430T00Z_MSC_RDPS_GeopotentialHeight_IsbL-0030_RLatLon0.09_PT057H.grib2 2026-04-30 02:56 308K
20260430T00Z_MSC_RDPS_GeopotentialHeight_IsbL-0050_RLatLon0.09_PT057H.grib2 2026-04-30 02:56 309K
20260430T00Z_MSC_RDPS_GeopotentialHeight_IsbL-0100_RLatLon0.09_PT057H.grib2 2026-04-30 02:56 287K
20260430T00Z_MSC_RDPS_GeopotentialHeight_IsbL-0150_RLatLon0.09_PT057H.grib2 2026-04-30 02:56 229K
20260430T00Z_MSC_RDPS_GeopotentialHeight_IsbL-0175_RLatLon0.09_PT057H.grib2 2026-04-30 02:56 232K
20260430T00Z_MSC_RDPS_GeopotentialHeight_IsbL-0200_RLatLon0.09_PT057H.grib2 2026-04-30 02:56 264K
20260430T00Z_MSC_RDPS_GeopotentialHeight_IsbL-0225_RLatLon0.09_PT057H.grib2 2026-04-30 02:56 266K
20260430T00Z_MSC_RDPS_GeopotentialHeight_IsbL-0250_RLatLon0.09_PT057H.grib2 2026-04-30 02:56 266K
20260430T00Z_MSC_RDPS_GeopotentialHeight_IsbL-0275_RLatLon0.09_PT057H.grib2 2026-04-30 02:56 265K
20260430T00Z_MSC_RDPS_GeopotentialHeight_IsbL-0300_RLatLon0.09_PT057H.grib2 2026-04-30 02:56 265K
20260430T00Z_MSC_RDPS_GeopotentialHeight_IsbL-0350_RLatLon0.09_PT057H.grib2 2026-04-30 02:56 230K
20260430T00Z_MSC_RDPS_GeopotentialHeight_IsbL-0400_RLatLon0.09_PT057H.grib2 2026-04-30 02:56 228K
20260430T00Z_MSC_RDPS_GeopotentialHeight_IsbL-0450_RLatLon0.09_PT057H.grib2 2026-04-30 02:56 296K
20260430T00Z_MSC_RDPS_GeopotentialHeight_IsbL-0500_RLatLon0.09_PT057H.grib2 2026-04-30 02:56 292K
20260430T00Z_MSC_RDPS_GeopotentialHeight_IsbL-0550_RLatLon0.09_PT057H.grib2 2026-04-30 02:56 289K
20260430T00Z_MSC_RDPS_GeopotentialHeight_IsbL-0600_RLatLon0.09_PT057H.grib2 2026-04-30 02:56 283K
20260430T00Z_MSC_RDPS_GeopotentialHeight_IsbL-0650_RLatLon0.09_PT057H.grib2 2026-04-30 02:56 254K
20260430T00Z_MSC_RDPS_GeopotentialHeight_IsbL-0700_RLatLon0.09_PT057H.grib2 2026-04-30 02:56 253K
20260430T00Z_MSC_RDPS_GeopotentialHeight_IsbL-0750_RLatLon0.09_PT057H.grib2 2026-04-30 02:56 338K
20260430T00Z_MSC_RDPS_GeopotentialHeight_IsbL-0800_RLatLon0.09_PT057H.grib2 2026-04-30 02:56 347K
20260430T00Z_MSC_RDPS_GeopotentialHeight_IsbL-0850_RLatLon0.09_PT057H.grib2 2026-04-30 02:56 358K
20260430T00Z_MSC_RDPS_GeopotentialHeight_IsbL-0875_RLatLon0.09_PT057H.grib2 2026-04-30 02:56 359K
20260430T00Z_MSC_RDPS_GeopotentialHeight_IsbL-0900_RLatLon0.09_PT057H.grib2 2026-04-30 02:56 364K
20260430T00Z_MSC_RDPS_GeopotentialHeight_IsbL-0925_RLatLon0.09_PT057H.grib2 2026-04-30 02:56 367K
20260430T00Z_MSC_RDPS_GeopotentialHeight_IsbL-0950_RLatLon0.09_PT057H.grib2 2026-04-30 02:56 368K
20260430T00Z_MSC_RDPS_GeopotentialHeight_IsbL-0970_RLatLon0.09_PT057H.grib2 2026-04-30 02:56 375K
20260430T00Z_MSC_RDPS_GeopotentialHeight_IsbL-0985_RLatLon0.09_PT057H.grib2 2026-04-30 02:56 384K
20260430T00Z_MSC_RDPS_GeopotentialHeight_IsbL-1000_RLatLon0.09_PT057H.grib2 2026-04-30 02:56 396K
20260430T00Z_MSC_RDPS_GeopotentialHeight_IsbL-1015_RLatLon0.09_PT057H.grib2 2026-04-30 02:56 411K
20260430T00Z_MSC_RDPS_Humidex_Sfc_RLatLon0.09_PT057H.grib2 2026-04-30 02:56 2.4M
20260430T00Z_MSC_RDPS_IcePellets-Accum1h_Sfc_RLatLon0.09_PT057H.grib2 2026-04-30 02:56 5.4K
20260430T00Z_MSC_RDPS_IcePellets-Accum3h_Sfc_RLatLon0.09_PT057H.grib2 2026-04-30 02:56 6.6K
20260430T00Z_MSC_RDPS_IcePellets-Accum_Sfc_RLatLon0.09_PT057H.grib2 2026-04-30 02:56 31K
20260430T00Z_MSC_RDPS_KIndex_Sfc_RLatLon0.09_PT057H.grib2 2026-04-30 02:56 2.5M
20260430T00Z_MSC_RDPS_LatentHeatNetFlux_Sfc_RLatLon0.09_PT057H.grib2 2026-04-30 02:56 317K
20260430T00Z_MSC_RDPS_LiftedIndex-MU-VT_IsbL-0500_RLatLon0.09_PT057H.grib2 2026-04-30 02:56 2.4M
20260430T00Z_MSC_RDPS_NetLongwaveRadiationFlux-Accum_Sfc_RLatLon0.09_PT057H.grib2 2026-04-30 02:56 563K
20260430T00Z_MSC_RDPS_NetShortwaveRadiationFlux-Accum_Sfc_RLatLon0.09_PT057H.grib2 2026-04-30 02:56 565K
20260430T00Z_MSC_RDPS_PlanetaryBoundaryLayerHeight_Sfc_RLatLon0.09_PT057H.grib2 2026-04-30 02:56 1.1M
20260430T00Z_MSC_RDPS_Precip-Accum1h_Sfc_RLatLon0.09_PT057H.grib2 2026-04-30 02:56 1.2M
20260430T00Z_MSC_RDPS_Precip-Accum3h_Sfc_RLatLon0.09_PT057H.grib2 2026-04-30 02:56 1.3M
20260430T00Z_MSC_RDPS_Precip-Accum_Sfc_RLatLon0.09_PT057H.grib2 2026-04-30 02:56 2.1M
20260430T00Z_MSC_RDPS_PrecipRate_Sfc_RLatLon0.09_PT057H.grib2 2026-04-30 02:56 173K
20260430T00Z_MSC_RDPS_PrecipType-Instant_Sfc_RLatLon0.09_PT057H.grib2 2026-04-30 02:56 601K
20260430T00Z_MSC_RDPS_Pressure-Trend3h_Sfc_RLatLon0.09_PT057H.grib2 2026-04-30 02:56 1.2M
20260430T00Z_MSC_RDPS_Pressure_MSL_RLatLon0.09_PT057H.grib2 2026-04-30 02:56 325K
20260430T00Z_MSC_RDPS_Pressure_PVU-1.5_RLatLon0.09_PT057H.grib2 2026-04-30 02:56 2.5M
20260430T00Z_MSC_RDPS_Pressure_PVU-1_RLatLon0.09_PT057H.grib2 2026-04-30 02:56 2.4M
20260430T00Z_MSC_RDPS_Pressure_PVU-2_RLatLon0.09_PT057H.grib2 2026-04-30 02:56 2.4M
20260430T00Z_MSC_RDPS_Pressure_Sfc_RLatLon0.09_PT057H.grib2 2026-04-30 02:56 499K
20260430T00Z_MSC_RDPS_RadiativeTemp_Sfc_RLatLon0.09_PT057H.grib2 2026-04-30 02:56 309K
20260430T00Z_MSC_RDPS_Rain-Accum1h_Sfc_RLatLon0.09_PT057H.grib2 2026-04-30 02:56 628K
20260430T00Z_MSC_RDPS_Rain-Accum3h_Sfc_RLatLon0.09_PT057H.grib2 2026-04-30 02:56 622K
20260430T00Z_MSC_RDPS_Rain-Accum_Sfc_RLatLon0.09_PT057H.grib2 2026-04-30 02:56 1.6M
20260430T00Z_MSC_RDPS_RelativeHumidity_AGL-2m_RLatLon0.09_PT057H.grib2 2026-04-30 02:56 1.0M
20260430T00Z_MSC_RDPS_RelativeHumidity_IsbL-0010_RLatLon0.09_PT057H.grib2 2026-04-30 02:56 630K
20260430T00Z_MSC_RDPS_RelativeHumidity_IsbL-0020_RLatLon0.09_PT057H.grib2 2026-04-30 02:56 666K
20260430T00Z_MSC_RDPS_RelativeHumidity_IsbL-0030_RLatLon0.09_PT057H.grib2 2026-04-30 02:56 603K
20260430T00Z_MSC_RDPS_RelativeHumidity_IsbL-0050_RLatLon0.09_PT057H.grib2 2026-04-30 02:56 313K
20260430T00Z_MSC_RDPS_RelativeHumidity_IsbL-0100_RLatLon0.09_PT057H.grib2 2026-04-30 02:56 275K
20260430T00Z_MSC_RDPS_RelativeHumidity_IsbL-0150_RLatLon0.09_PT057H.grib2 2026-04-30 02:56 401K
20260430T00Z_MSC_RDPS_RelativeHumidity_IsbL-0175_RLatLon0.09_PT057H.grib2 2026-04-30 02:56 468K
20260430T00Z_MSC_RDPS_RelativeHumidity_IsbL-0200_RLatLon0.09_PT057H.grib2 2026-04-30 02:56 551K
20260430T00Z_MSC_RDPS_RelativeHumidity_IsbL-0225_RLatLon0.09_PT057H.grib2 2026-04-30 02:56 616K
20260430T00Z_MSC_RDPS_RelativeHumidity_IsbL-0250_RLatLon0.09_PT057H.grib2 2026-04-30 02:56 678K
20260430T00Z_MSC_RDPS_RelativeHumidity_IsbL-0275_RLatLon0.09_PT057H.grib2 2026-04-30 02:56 701K
20260430T00Z_MSC_RDPS_RelativeHumidity_IsbL-0300_RLatLon0.09_PT057H.grib2 2026-04-30 02:56 743K
20260430T00Z_MSC_RDPS_RelativeHumidity_IsbL-0350_RLatLon0.09_PT057H.grib2 2026-04-30 02:56 763K
20260430T00Z_MSC_RDPS_RelativeHumidity_IsbL-0400_RLatLon0.09_PT057H.grib2 2026-04-30 02:56 786K
20260430T00Z_MSC_RDPS_RelativeHumidity_IsbL-0450_RLatLon0.09_PT057H.grib2 2026-04-30 02:56 799K
20260430T00Z_MSC_RDPS_RelativeHumidity_IsbL-0500_RLatLon0.09_PT057H.grib2 2026-04-30 02:56 806K
20260430T00Z_MSC_RDPS_RelativeHumidity_IsbL-0550_RLatLon0.09_PT057H.grib2 2026-04-30 02:56 823K
20260430T00Z_MSC_RDPS_RelativeHumidity_IsbL-0600_RLatLon0.09_PT057H.grib2 2026-04-30 02:56 840K
20260430T00Z_MSC_RDPS_RelativeHumidity_IsbL-0650_RLatLon0.09_PT057H.grib2 2026-04-30 02:56 851K
20260430T00Z_MSC_RDPS_RelativeHumidity_IsbL-0700_RLatLon0.09_PT057H.grib2 2026-04-30 02:56 872K
20260430T00Z_MSC_RDPS_RelativeHumidity_IsbL-0750_RLatLon0.09_PT057H.grib2 2026-04-30 02:56 919K
20260430T00Z_MSC_RDPS_RelativeHumidity_IsbL-0800_RLatLon0.09_PT057H.grib2 2026-04-30 02:56 1.0M
20260430T00Z_MSC_RDPS_RelativeHumidity_IsbL-0850_RLatLon0.09_PT057H.grib2 2026-04-30 02:56 1.0M
20260430T00Z_MSC_RDPS_RelativeHumidity_IsbL-0875_RLatLon0.09_PT057H.grib2 2026-04-30 02:56 1.1M
20260430T00Z_MSC_RDPS_RelativeHumidity_IsbL-0900_RLatLon0.09_PT057H.grib2 2026-04-30 02:56 1.1M
20260430T00Z_MSC_RDPS_RelativeHumidity_IsbL-0925_RLatLon0.09_PT057H.grib2 2026-04-30 02:56 1.1M
20260430T00Z_MSC_RDPS_RelativeHumidity_IsbL-0950_RLatLon0.09_PT057H.grib2 2026-04-30 02:56 1.1M
20260430T00Z_MSC_RDPS_RelativeHumidity_IsbL-0970_RLatLon0.09_PT057H.grib2 2026-04-30 02:56 1.1M
20260430T00Z_MSC_RDPS_RelativeHumidity_IsbL-0985_RLatLon0.09_PT057H.grib2 2026-04-30 02:56 1.0M
20260430T00Z_MSC_RDPS_RelativeHumidity_IsbL-1000_RLatLon0.09_PT057H.grib2 2026-04-30 02:56 1.0M
20260430T00Z_MSC_RDPS_RelativeHumidity_IsbL-1015_RLatLon0.09_PT057H.grib2 2026-04-30 02:56 1.0M
20260430T00Z_MSC_RDPS_Runoff-Accum_Sfc_RLatLon0.09_PT057H.grib2 2026-04-30 02:56 59K
20260430T00Z_MSC_RDPS_SWEATIndex_Sfc_RLatLon0.09_PT057H.grib2 2026-04-30 02:56 2.4M
20260430T00Z_MSC_RDPS_SeeingIndex_EAtm_RLatLon0.09_PT057H.grib2 2026-04-30 02:56 1.0M
20260430T00Z_MSC_RDPS_SensibleHeatNetFlux_Sfc_RLatLon0.09_PT057H.grib2 2026-04-30 02:56 295K
20260430T00Z_MSC_RDPS_ShowalterIndex_IsbL-0500_RLatLon0.09_PT057H.grib2 2026-04-30 02:56 2.6M
20260430T00Z_MSC_RDPS_SkyTransparencyIndex_EAtm_RLatLon0.09_PT057H.grib2 2026-04-30 02:56 701K
20260430T00Z_MSC_RDPS_Snow-Accum1h_Sfc_RLatLon0.09_PT057H.grib2 2026-04-30 02:56 468K
20260430T00Z_MSC_RDPS_Snow-Accum3h_Sfc_RLatLon0.09_PT057H.grib2 2026-04-30 02:56 394K
20260430T00Z_MSC_RDPS_Snow-Accum_Sfc_RLatLon0.09_PT057H.grib2 2026-04-30 02:56 751K
20260430T00Z_MSC_RDPS_SnowDensity_Sfc_RLatLon0.09_PT057H.grib2 2026-04-30 02:56 176K
20260430T00Z_MSC_RDPS_SnowDepth_Sfc_RLatLon0.09_PT057H.grib2 2026-04-30 02:56 667K
20260430T00Z_MSC_RDPS_SoilTemp_DBS-0to10cm_RLatLon0.09_PT057H.grib2 2026-04-30 02:56 239K
20260430T00Z_MSC_RDPS_SoilTemp_Sfc_RLatLon0.09_PT057H.grib2 2026-04-30 02:56 270K
20260430T00Z_MSC_RDPS_SoilVolumetricIceContent_Sfc_RLatLon0.09_PT057H.grib2 2026-04-30 02:56 160K
20260430T00Z_MSC_RDPS_SoilVolumetricWaterContent_DBS-0to10cm_RLatLon0.09_PT057H.grib2 2026-04-30 02:56 271K
20260430T00Z_MSC_RDPS_SoilVolumetricWaterContent_DBS-0to1cm_RLatLon0.09_PT057H.grib2 2026-04-30 02:56 340K
20260430T00Z_MSC_RDPS_SpecificHumidity_AGL-120m_RLatLon0.09_PT057H.grib2 2026-04-30 02:56 490K
20260430T00Z_MSC_RDPS_SpecificHumidity_AGL-2m_RLatLon0.09_PT057H.grib2 2026-04-30 02:56 654K
20260430T00Z_MSC_RDPS_SpecificHumidity_AGL-40m_RLatLon0.09_PT057H.grib2 2026-04-30 02:56 494K
20260430T00Z_MSC_RDPS_SpecificHumidity_AGL-80m_RLatLon0.09_PT057H.grib2 2026-04-30 02:56 491K
20260430T00Z_MSC_RDPS_SpecificHumidity_IsbL-0001_RLatLon0.09_PT057H.grib2 2026-04-30 02:56 353K
20260430T00Z_MSC_RDPS_SpecificHumidity_IsbL-0005_RLatLon0.09_PT057H.grib2 2026-04-30 02:56 357K
20260430T00Z_MSC_RDPS_SpecificHumidity_IsbL-0010_RLatLon0.09_PT057H.grib2 2026-04-30 02:56 393K
20260430T00Z_MSC_RDPS_SpecificHumidity_IsbL-0020_RLatLon0.09_PT057H.grib2 2026-04-30 02:56 379K
20260430T00Z_MSC_RDPS_SpecificHumidity_IsbL-0030_RLatLon0.09_PT057H.grib2 2026-04-30 02:56 475K
20260430T00Z_MSC_RDPS_SpecificHumidity_IsbL-0050_RLatLon0.09_PT057H.grib2 2026-04-30 02:56 478K
20260430T00Z_MSC_RDPS_SpecificHumidity_IsbL-0100_RLatLon0.09_PT057H.grib2 2026-04-30 02:56 416K
20260430T00Z_MSC_RDPS_SpecificHumidity_IsbL-0150_RLatLon0.09_PT057H.grib2 2026-04-30 02:56 444K
20260430T00Z_MSC_RDPS_SpecificHumidity_IsbL-0175_RLatLon0.09_PT057H.grib2 2026-04-30 02:56 527K
20260430T00Z_MSC_RDPS_SpecificHumidity_IsbL-0200_RLatLon0.09_PT057H.grib2 2026-04-30 02:56 442K
20260430T00Z_MSC_RDPS_SpecificHumidity_IsbL-0225_RLatLon0.09_PT057H.grib2 2026-04-30 02:56 447K
20260430T00Z_MSC_RDPS_SpecificHumidity_IsbL-0250_RLatLon0.09_PT057H.grib2 2026-04-30 02:56 549K
20260430T00Z_MSC_RDPS_SpecificHumidity_IsbL-0275_RLatLon0.09_PT057H.grib2 2026-04-30 02:56 464K
20260430T00Z_MSC_RDPS_SpecificHumidity_IsbL-0300_RLatLon0.09_PT057H.grib2 2026-04-30 02:56 438K
20260430T00Z_MSC_RDPS_SpecificHumidity_IsbL-0350_RLatLon0.09_PT057H.grib2 2026-04-30 02:56 431K
20260430T00Z_MSC_RDPS_SpecificHumidity_IsbL-0400_RLatLon0.09_PT057H.grib2 2026-04-30 02:56 515K
20260430T00Z_MSC_RDPS_SpecificHumidity_IsbL-0450_RLatLon0.09_PT057H.grib2 2026-04-30 02:56 573K
20260430T00Z_MSC_RDPS_SpecificHumidity_IsbL-0500_RLatLon0.09_PT057H.grib2 2026-04-30 02:56 508K
20260430T00Z_MSC_RDPS_SpecificHumidity_IsbL-0550_RLatLon0.09_PT057H.grib2 2026-04-30 02:56 581K
20260430T00Z_MSC_RDPS_SpecificHumidity_IsbL-0600_RLatLon0.09_PT057H.grib2 2026-04-30 02:56 632K
20260430T00Z_MSC_RDPS_SpecificHumidity_IsbL-0650_RLatLon0.09_PT057H.grib2 2026-04-30 02:56 549K
20260430T00Z_MSC_RDPS_SpecificHumidity_IsbL-0700_RLatLon0.09_PT057H.grib2 2026-04-30 02:56 590K
20260430T00Z_MSC_RDPS_SpecificHumidity_IsbL-0750_RLatLon0.09_PT057H.grib2 2026-04-30 02:56 642K
20260430T00Z_MSC_RDPS_SpecificHumidity_IsbL-0800_RLatLon0.09_PT057H.grib2 2026-04-30 02:56 723K
20260430T00Z_MSC_RDPS_SpecificHumidity_IsbL-0850_RLatLon0.09_PT057H.grib2 2026-04-30 02:56 797K
20260430T00Z_MSC_RDPS_SpecificHumidity_IsbL-0875_RLatLon0.09_PT057H.grib2 2026-04-30 02:56 823K
20260430T00Z_MSC_RDPS_SpecificHumidity_IsbL-0900_RLatLon0.09_PT057H.grib2 2026-04-30 02:56 836K
20260430T00Z_MSC_RDPS_SpecificHumidity_IsbL-0925_RLatLon0.09_PT057H.grib2 2026-04-30 02:56 836K
20260430T00Z_MSC_RDPS_SpecificHumidity_IsbL-0950_RLatLon0.09_PT057H.grib2 2026-04-30 02:56 841K
20260430T00Z_MSC_RDPS_SpecificHumidity_IsbL-0970_RLatLon0.09_PT057H.grib2 2026-04-30 02:56 692K
20260430T00Z_MSC_RDPS_SpecificHumidity_IsbL-0985_RLatLon0.09_PT057H.grib2 2026-04-30 02:56 684K
20260430T00Z_MSC_RDPS_SpecificHumidity_IsbL-1000_RLatLon0.09_PT057H.grib2 2026-04-30 02:56 677K
20260430T00Z_MSC_RDPS_SpecificHumidity_IsbL-1015_RLatLon0.09_PT057H.grib2 2026-04-30 02:56 665K
20260430T00Z_MSC_RDPS_SpecificHumidity_Sfc_RLatLon0.09_PT057H.grib2 2026-04-30 02:56 297K
20260430T00Z_MSC_RDPS_StormRelativeHelicity_EtaL-10000_RLatLon0.09_PT057H.grib2 2026-04-30 02:56 1.1M
20260430T00Z_MSC_RDPS_StormSeverityIndex_EtaL-10000_RLatLon0.09_PT057H.grib2 2026-04-30 02:56 1.2M
20260430T00Z_MSC_RDPS_Thickness_IsbL-0850to0700_RLatLon0.09_PT057H.grib2 2026-04-30 02:56 176K
20260430T00Z_MSC_RDPS_Thickness_IsbL-1000to0500_RLatLon0.09_PT057H.grib2 2026-04-30 02:56 195K
20260430T00Z_MSC_RDPS_Thickness_IsbL-1000to0850_RLatLon0.09_PT057H.grib2 2026-04-30 02:56 261K
20260430T00Z_MSC_RDPS_TotalCloudCover_Sfc_RLatLon0.09_PT057H.grib2 2026-04-30 02:56 654K
20260430T00Z_MSC_RDPS_TotalTotalsIndex_Sfc_RLatLon0.09_PT057H.grib2 2026-04-30 02:56 2.4M
20260430T00Z_MSC_RDPS_UVIndex-ClearSky_Sfc_RLatLon0.09_PT057H.grib2 2026-04-30 02:56 114K
20260430T00Z_MSC_RDPS_UVIndex_Sfc_RLatLon0.09_PT057H.grib2 2026-04-30 02:56 205K
20260430T00Z_MSC_RDPS_UpwardLongwaveRadiationFlux_NTAtm_RLatLon0.09_PT057H.grib2 2026-04-30 02:56 481K
20260430T00Z_MSC_RDPS_UpwardShortwaveRadiationFlux_NTAtm_RLatLon0.09_PT057H.grib2 2026-04-30 02:56 164K
20260430T00Z_MSC_RDPS_VerticalVelocity_IsbL-0250_RLatLon0.09_PT057H.grib2 2026-04-30 02:56 543K
20260430T00Z_MSC_RDPS_VerticalVelocity_IsbL-0500_RLatLon0.09_PT057H.grib2 2026-04-30 02:56 539K
20260430T00Z_MSC_RDPS_VerticalVelocity_IsbL-0700_RLatLon0.09_PT057H.grib2 2026-04-30 02:56 572K
20260430T00Z_MSC_RDPS_VerticalVelocity_IsbL-0850_RLatLon0.09_PT057H.grib2 2026-04-30 02:56 709K
20260430T00Z_MSC_RDPS_VerticalWindShear_EtaL-6500_RLatLon0.09_PT057H.grib2 2026-04-30 02:56 1.2M
20260430T00Z_MSC_RDPS_WindChill_Sfc_RLatLon0.09_PT057H.grib2 2026-04-30 02:56 1.2M
20260430T00Z_MSC_RDPS_WindDir_AGL-10m_RLatLon0.09_PT057H.grib2 2026-04-30 02:56 971K
20260430T00Z_MSC_RDPS_WindDir_AGL-120m_RLatLon0.09_PT057H.grib2 2026-04-30 02:56 605K
20260430T00Z_MSC_RDPS_WindDir_AGL-40m_RLatLon0.09_PT057H.grib2 2026-04-30 02:56 638K
20260430T00Z_MSC_RDPS_WindDir_AGL-80m_RLatLon0.09_PT057H.grib2 2026-04-30 02:56 617K
20260430T00Z_MSC_RDPS_WindDir_IsbL-0001_RLatLon0.09_PT057H.grib2 2026-04-30 02:56 316K
20260430T00Z_MSC_RDPS_WindDir_IsbL-0005_RLatLon0.09_PT057H.grib2 2026-04-30 02:56 364K
20260430T00Z_MSC_RDPS_WindDir_IsbL-0010_RLatLon0.09_PT057H.grib2 2026-04-30 02:56 384K
20260430T00Z_MSC_RDPS_WindDir_IsbL-0020_RLatLon0.09_PT057H.grib2 2026-04-30 02:56 425K
20260430T00Z_MSC_RDPS_WindDir_IsbL-0030_RLatLon0.09_PT057H.grib2 2026-04-30 02:56 404K
20260430T00Z_MSC_RDPS_WindDir_IsbL-0050_RLatLon0.09_PT057H.grib2 2026-04-30 02:56 427K
20260430T00Z_MSC_RDPS_WindDir_IsbL-0100_RLatLon0.09_PT057H.grib2 2026-04-30 02:56 414K
20260430T00Z_MSC_RDPS_WindDir_IsbL-0150_RLatLon0.09_PT057H.grib2 2026-04-30 02:56 403K
20260430T00Z_MSC_RDPS_WindDir_IsbL-0175_RLatLon0.09_PT057H.grib2 2026-04-30 02:56 425K
20260430T00Z_MSC_RDPS_WindDir_IsbL-0200_RLatLon0.09_PT057H.grib2 2026-04-30 02:56 442K
20260430T00Z_MSC_RDPS_WindDir_IsbL-0225_RLatLon0.09_PT057H.grib2 2026-04-30 02:56 450K
20260430T00Z_MSC_RDPS_WindDir_IsbL-0250_RLatLon0.09_PT057H.grib2 2026-04-30 02:56 452K
20260430T00Z_MSC_RDPS_WindDir_IsbL-0275_RLatLon0.09_PT057H.grib2 2026-04-30 02:56 477K
20260430T00Z_MSC_RDPS_WindDir_IsbL-0300_RLatLon0.09_PT057H.grib2 2026-04-30 02:56 476K
20260430T00Z_MSC_RDPS_WindDir_IsbL-0350_RLatLon0.09_PT057H.grib2 2026-04-30 02:56 494K
20260430T00Z_MSC_RDPS_WindDir_IsbL-0400_RLatLon0.09_PT057H.grib2 2026-04-30 02:56 515K
20260430T00Z_MSC_RDPS_WindDir_IsbL-0450_RLatLon0.09_PT057H.grib2 2026-04-30 02:56 532K
20260430T00Z_MSC_RDPS_WindDir_IsbL-0500_RLatLon0.09_PT057H.grib2 2026-04-30 02:56 545K
20260430T00Z_MSC_RDPS_WindDir_IsbL-0550_RLatLon0.09_PT057H.grib2 2026-04-30 02:56 561K
20260430T00Z_MSC_RDPS_WindDir_IsbL-0600_RLatLon0.09_PT057H.grib2 2026-04-30 02:56 587K
20260430T00Z_MSC_RDPS_WindDir_IsbL-0650_RLatLon0.09_PT057H.grib2 2026-04-30 02:56 626K
20260430T00Z_MSC_RDPS_WindDir_IsbL-0700_RLatLon0.09_PT057H.grib2 2026-04-30 02:56 667K
20260430T00Z_MSC_RDPS_WindDir_IsbL-0750_RLatLon0.09_PT057H.grib2 2026-04-30 02:56 711K
20260430T00Z_MSC_RDPS_WindDir_IsbL-0800_RLatLon0.09_PT057H.grib2 2026-04-30 02:56 779K
20260430T00Z_MSC_RDPS_WindDir_IsbL-0850_RLatLon0.09_PT057H.grib2 2026-04-30 02:56 855K
20260430T00Z_MSC_RDPS_WindDir_IsbL-0875_RLatLon0.09_PT057H.grib2 2026-04-30 02:56 890K
20260430T00Z_MSC_RDPS_WindDir_IsbL-0900_RLatLon0.09_PT057H.grib2 2026-04-30 02:56 906K
20260430T00Z_MSC_RDPS_WindDir_IsbL-0925_RLatLon0.09_PT057H.grib2 2026-04-30 02:56 918K
20260430T00Z_MSC_RDPS_WindDir_IsbL-0950_RLatLon0.09_PT057H.grib2 2026-04-30 02:56 912K
20260430T00Z_MSC_RDPS_WindDir_IsbL-0970_RLatLon0.09_PT057H.grib2 2026-04-30 02:56 922K
20260430T00Z_MSC_RDPS_WindDir_IsbL-0985_RLatLon0.09_PT057H.grib2 2026-04-30 02:56 931K
20260430T00Z_MSC_RDPS_WindDir_IsbL-1000_RLatLon0.09_PT057H.grib2 2026-04-30 02:56 944K
20260430T00Z_MSC_RDPS_WindDir_IsbL-1015_RLatLon0.09_PT057H.grib2 2026-04-30 02:56 961K
20260430T00Z_MSC_RDPS_WindGust-Max_AGL-10m_RLatLon0.09_PT057H.grib2 2026-04-30 02:56 962K
20260430T00Z_MSC_RDPS_WindGust-Min_AGL-10m_RLatLon0.09_PT057H.grib2 2026-04-30 02:56 970K
20260430T00Z_MSC_RDPS_WindGust_AGL-10m_RLatLon0.09_PT057H.grib2 2026-04-30 02:56 1.0M
20260430T00Z_MSC_RDPS_WindSpeed_AGL-10m_RLatLon0.09_PT057H.grib2 2026-04-30 02:56 842K
20260430T00Z_MSC_RDPS_WindSpeed_AGL-120m_RLatLon0.09_PT057H.grib2 2026-04-30 02:56 544K
20260430T00Z_MSC_RDPS_WindSpeed_AGL-40m_RLatLon0.09_PT057H.grib2 2026-04-30 02:56 544K
20260430T00Z_MSC_RDPS_WindSpeed_AGL-80m_RLatLon0.09_PT057H.grib2 2026-04-30 02:56 544K
20260430T00Z_MSC_RDPS_WindSpeed_IsbL-0001_RLatLon0.09_PT057H.grib2 2026-04-30 02:56 252K
20260430T00Z_MSC_RDPS_WindSpeed_IsbL-0005_RLatLon0.09_PT057H.grib2 2026-04-30 02:56 384K
20260430T00Z_MSC_RDPS_WindSpeed_IsbL-0010_RLatLon0.09_PT057H.grib2 2026-04-30 02:56 397K
20260430T00Z_MSC_RDPS_WindSpeed_IsbL-0020_RLatLon0.09_PT057H.grib2 2026-04-30 02:56 319K
20260430T00Z_MSC_RDPS_WindSpeed_IsbL-0030_RLatLon0.09_PT057H.grib2 2026-04-30 02:56 314K
20260430T00Z_MSC_RDPS_WindSpeed_IsbL-0050_RLatLon0.09_PT057H.grib2 2026-04-30 02:56 347K
20260430T00Z_MSC_RDPS_WindSpeed_IsbL-0100_RLatLon0.09_PT057H.grib2 2026-04-30 02:56 474K
20260430T00Z_MSC_RDPS_WindSpeed_IsbL-0150_RLatLon0.09_PT057H.grib2 2026-04-30 02:56 375K
20260430T00Z_MSC_RDPS_WindSpeed_IsbL-0175_RLatLon0.09_PT057H.grib2 2026-04-30 02:56 401K
20260430T00Z_MSC_RDPS_WindSpeed_IsbL-0200_RLatLon0.09_PT057H.grib2 2026-04-30 02:56 437K
20260430T00Z_MSC_RDPS_WindSpeed_IsbL-0225_RLatLon0.09_PT057H.grib2 2026-04-30 02:56 443K
20260430T00Z_MSC_RDPS_WindSpeed_IsbL-0250_RLatLon0.09_PT057H.grib2 2026-04-30 02:56 444K
20260430T00Z_MSC_RDPS_WindSpeed_IsbL-0275_RLatLon0.09_PT057H.grib2 2026-04-30 02:56 463K
20260430T00Z_MSC_RDPS_WindSpeed_IsbL-0300_RLatLon0.09_PT057H.grib2 2026-04-30 02:56 461K
20260430T00Z_MSC_RDPS_WindSpeed_IsbL-0350_RLatLon0.09_PT057H.grib2 2026-04-30 02:56 472K
20260430T00Z_MSC_RDPS_WindSpeed_IsbL-0400_RLatLon0.09_PT057H.grib2 2026-04-30 02:56 477K
20260430T00Z_MSC_RDPS_WindSpeed_IsbL-0450_RLatLon0.09_PT057H.grib2 2026-04-30 02:56 460K
20260430T00Z_MSC_RDPS_WindSpeed_IsbL-0500_RLatLon0.09_PT057H.grib2 2026-04-30 02:56 461K
20260430T00Z_MSC_RDPS_WindSpeed_IsbL-0550_RLatLon0.09_PT057H.grib2 2026-04-30 02:56 581K
20260430T00Z_MSC_RDPS_WindSpeed_IsbL-0600_RLatLon0.09_PT057H.grib2 2026-04-30 02:56 590K
20260430T00Z_MSC_RDPS_WindSpeed_IsbL-0650_RLatLon0.09_PT057H.grib2 2026-04-30 02:56 650K
20260430T00Z_MSC_RDPS_WindSpeed_IsbL-0700_RLatLon0.09_PT057H.grib2 2026-04-30 02:56 675K
20260430T00Z_MSC_RDPS_WindSpeed_IsbL-0750_RLatLon0.09_PT057H.grib2 2026-04-30 02:56 704K
20260430T00Z_MSC_RDPS_WindSpeed_IsbL-0800_RLatLon0.09_PT057H.grib2 2026-04-30 02:56 706K
20260430T00Z_MSC_RDPS_WindSpeed_IsbL-0850_RLatLon0.09_PT057H.grib2 2026-04-30 02:56 766K
20260430T00Z_MSC_RDPS_WindSpeed_IsbL-0875_RLatLon0.09_PT057H.grib2 2026-04-30 02:56 789K
20260430T00Z_MSC_RDPS_WindSpeed_IsbL-0900_RLatLon0.09_PT057H.grib2 2026-04-30 02:56 804K
20260430T00Z_MSC_RDPS_WindSpeed_IsbL-0925_RLatLon0.09_PT057H.grib2 2026-04-30 02:56 863K
20260430T00Z_MSC_RDPS_WindSpeed_IsbL-0950_RLatLon0.09_PT057H.grib2 2026-04-30 02:56 866K
20260430T00Z_MSC_RDPS_WindSpeed_IsbL-0970_RLatLon0.09_PT057H.grib2 2026-04-30 02:56 865K
20260430T00Z_MSC_RDPS_WindSpeed_IsbL-0985_RLatLon0.09_PT057H.grib2 2026-04-30 02:56 858K
20260430T00Z_MSC_RDPS_WindSpeed_IsbL-1000_RLatLon0.09_PT057H.grib2 2026-04-30 02:56 851K
20260430T00Z_MSC_RDPS_WindSpeed_IsbL-1015_RLatLon0.09_PT057H.grib2 2026-04-30 02:56 841K
20260430T00Z_MSC_RDPS_WindU_AGL-10m_RLatLon0.09_PT057H.grib2 2026-04-30 02:56 431K
20260430T00Z_MSC_RDPS_WindU_AGL-120m_RLatLon0.09_PT057H.grib2 2026-04-30 02:56 539K
20260430T00Z_MSC_RDPS_WindU_AGL-40m_RLatLon0.09_PT057H.grib2 2026-04-30 02:56 540K
20260430T00Z_MSC_RDPS_WindU_AGL-80m_RLatLon0.09_PT057H.grib2 2026-04-30 02:56 539K
20260430T00Z_MSC_RDPS_WindU_IsbL-0001_RLatLon0.09_PT057H.grib2 2026-04-30 02:56 291K
20260430T00Z_MSC_RDPS_WindU_IsbL-0005_RLatLon0.09_PT057H.grib2 2026-04-30 02:56 283K
20260430T00Z_MSC_RDPS_WindU_IsbL-0010_RLatLon0.09_PT057H.grib2 2026-04-30 02:56 294K
20260430T00Z_MSC_RDPS_WindU_IsbL-0020_RLatLon0.09_PT057H.grib2 2026-04-30 02:56 310K
20260430T00Z_MSC_RDPS_WindU_IsbL-0030_RLatLon0.09_PT057H.grib2 2026-04-30 02:56 348K
20260430T00Z_MSC_RDPS_WindU_IsbL-0050_RLatLon0.09_PT057H.grib2 2026-04-30 02:56 342K
20260430T00Z_MSC_RDPS_WindU_IsbL-0100_RLatLon0.09_PT057H.grib2 2026-04-30 02:56 430K
20260430T00Z_MSC_RDPS_WindU_IsbL-0150_RLatLon0.09_PT057H.grib2 2026-04-30 02:56 391K
20260430T00Z_MSC_RDPS_WindU_IsbL-0175_RLatLon0.09_PT057H.grib2 2026-04-30 02:56 415K
20260430T00Z_MSC_RDPS_WindU_IsbL-0200_RLatLon0.09_PT057H.grib2 2026-04-30 02:56 430K
20260430T00Z_MSC_RDPS_WindU_IsbL-0225_RLatLon0.09_PT057H.grib2 2026-04-30 02:56 337K
20260430T00Z_MSC_RDPS_WindU_IsbL-0250_RLatLon0.09_PT057H.grib2 2026-04-30 02:56 337K
20260430T00Z_MSC_RDPS_WindU_IsbL-0275_RLatLon0.09_PT057H.grib2 2026-04-30 02:56 352K
20260430T00Z_MSC_RDPS_WindU_IsbL-0300_RLatLon0.09_PT057H.grib2 2026-04-30 02:56 349K
20260430T00Z_MSC_RDPS_WindU_IsbL-0350_RLatLon0.09_PT057H.grib2 2026-04-30 02:56 358K
20260430T00Z_MSC_RDPS_WindU_IsbL-0400_RLatLon0.09_PT057H.grib2 2026-04-30 02:56 465K
20260430T00Z_MSC_RDPS_WindU_IsbL-0450_RLatLon0.09_PT057H.grib2 2026-04-30 02:56 467K
20260430T00Z_MSC_RDPS_WindU_IsbL-0500_RLatLon0.09_PT057H.grib2 2026-04-30 02:56 470K
20260430T00Z_MSC_RDPS_WindU_IsbL-0550_RLatLon0.09_PT057H.grib2 2026-04-30 02:56 472K
20260430T00Z_MSC_RDPS_WindU_IsbL-0600_RLatLon0.09_PT057H.grib2 2026-04-30 02:56 463K
20260430T00Z_MSC_RDPS_WindU_IsbL-0650_RLatLon0.09_PT057H.grib2 2026-04-30 02:56 479K
20260430T00Z_MSC_RDPS_WindU_IsbL-0700_RLatLon0.09_PT057H.grib2 2026-04-30 02:56 501K
20260430T00Z_MSC_RDPS_WindU_IsbL-0750_RLatLon0.09_PT057H.grib2 2026-04-30 02:56 527K
20260430T00Z_MSC_RDPS_WindU_IsbL-0800_RLatLon0.09_PT057H.grib2 2026-04-30 02:56 567K
20260430T00Z_MSC_RDPS_WindU_IsbL-0850_RLatLon0.09_PT057H.grib2 2026-04-30 02:56 621K
20260430T00Z_MSC_RDPS_WindU_IsbL-0875_RLatLon0.09_PT057H.grib2 2026-04-30 02:56 641K
20260430T00Z_MSC_RDPS_WindU_IsbL-0900_RLatLon0.09_PT057H.grib2 2026-04-30 02:56 652K
20260430T00Z_MSC_RDPS_WindU_IsbL-0925_RLatLon0.09_PT057H.grib2 2026-04-30 02:56 660K
20260430T00Z_MSC_RDPS_WindU_IsbL-0950_RLatLon0.09_PT057H.grib2 2026-04-30 02:56 659K
20260430T00Z_MSC_RDPS_WindU_IsbL-0970_RLatLon0.09_PT057H.grib2 2026-04-30 02:56 799K
20260430T00Z_MSC_RDPS_WindU_IsbL-0985_RLatLon0.09_PT057H.grib2 2026-04-30 02:56 793K
20260430T00Z_MSC_RDPS_WindU_IsbL-1000_RLatLon0.09_PT057H.grib2 2026-04-30 02:56 787K
20260430T00Z_MSC_RDPS_WindU_IsbL-1015_RLatLon0.09_PT057H.grib2 2026-04-30 02:56 826K
20260430T00Z_MSC_RDPS_WindV_AGL-10m_RLatLon0.09_PT057H.grib2 2026-04-30 02:56 433K
20260430T00Z_MSC_RDPS_WindV_AGL-120m_RLatLon0.09_PT057H.grib2 2026-04-30 02:56 538K
20260430T00Z_MSC_RDPS_WindV_AGL-40m_RLatLon0.09_PT057H.grib2 2026-04-30 02:56 540K
20260430T00Z_MSC_RDPS_WindV_AGL-80m_RLatLon0.09_PT057H.grib2 2026-04-30 02:56 539K
20260430T00Z_MSC_RDPS_WindV_IsbL-0001_RLatLon0.09_PT057H.grib2 2026-04-30 02:56 244K
20260430T00Z_MSC_RDPS_WindV_IsbL-0005_RLatLon0.09_PT057H.grib2 2026-04-30 02:56 286K
20260430T00Z_MSC_RDPS_WindV_IsbL-0010_RLatLon0.09_PT057H.grib2 2026-04-30 02:56 297K
20260430T00Z_MSC_RDPS_WindV_IsbL-0020_RLatLon0.09_PT057H.grib2 2026-04-30 02:56 352K
20260430T00Z_MSC_RDPS_WindV_IsbL-0030_RLatLon0.09_PT057H.grib2 2026-04-30 02:56 310K
20260430T00Z_MSC_RDPS_WindV_IsbL-0050_RLatLon0.09_PT057H.grib2 2026-04-30 02:56 340K
20260430T00Z_MSC_RDPS_WindV_IsbL-0100_RLatLon0.09_PT057H.grib2 2026-04-30 02:56 427K
20260430T00Z_MSC_RDPS_WindV_IsbL-0150_RLatLon0.09_PT057H.grib2 2026-04-30 02:56 392K
20260430T00Z_MSC_RDPS_WindV_IsbL-0175_RLatLon0.09_PT057H.grib2 2026-04-30 02:56 415K
20260430T00Z_MSC_RDPS_WindV_IsbL-0200_RLatLon0.09_PT057H.grib2 2026-04-30 02:56 333K
20260430T00Z_MSC_RDPS_WindV_IsbL-0225_RLatLon0.09_PT057H.grib2 2026-04-30 02:56 336K
20260430T00Z_MSC_RDPS_WindV_IsbL-0250_RLatLon0.09_PT057H.grib2 2026-04-30 02:56 336K
20260430T00Z_MSC_RDPS_WindV_IsbL-0275_RLatLon0.09_PT057H.grib2 2026-04-30 02:56 350K
20260430T00Z_MSC_RDPS_WindV_IsbL-0300_RLatLon0.09_PT057H.grib2 2026-04-30 02:56 348K
20260430T00Z_MSC_RDPS_WindV_IsbL-0350_RLatLon0.09_PT057H.grib2 2026-04-30 02:56 356K
20260430T00Z_MSC_RDPS_WindV_IsbL-0400_RLatLon0.09_PT057H.grib2 2026-04-30 02:56 361K
20260430T00Z_MSC_RDPS_WindV_IsbL-0450_RLatLon0.09_PT057H.grib2 2026-04-30 02:56 465K
20260430T00Z_MSC_RDPS_WindV_IsbL-0500_RLatLon0.09_PT057H.grib2 2026-04-30 02:56 466K
20260430T00Z_MSC_RDPS_WindV_IsbL-0550_RLatLon0.09_PT057H.grib2 2026-04-30 02:56 468K
20260430T00Z_MSC_RDPS_WindV_IsbL-0600_RLatLon0.09_PT057H.grib2 2026-04-30 02:56 458K
20260430T00Z_MSC_RDPS_WindV_IsbL-0650_RLatLon0.09_PT057H.grib2 2026-04-30 02:56 475K
20260430T00Z_MSC_RDPS_WindV_IsbL-0700_RLatLon0.09_PT057H.grib2 2026-04-30 02:56 618K
20260430T00Z_MSC_RDPS_WindV_IsbL-0750_RLatLon0.09_PT057H.grib2 2026-04-30 02:56 648K
20260430T00Z_MSC_RDPS_WindV_IsbL-0800_RLatLon0.09_PT057H.grib2 2026-04-30 02:56 691K
20260430T00Z_MSC_RDPS_WindV_IsbL-0850_RLatLon0.09_PT057H.grib2 2026-04-30 02:56 618K
20260430T00Z_MSC_RDPS_WindV_IsbL-0875_RLatLon0.09_PT057H.grib2 2026-04-30 02:56 639K
20260430T00Z_MSC_RDPS_WindV_IsbL-0900_RLatLon0.09_PT057H.grib2 2026-04-30 02:56 651K
20260430T00Z_MSC_RDPS_WindV_IsbL-0925_RLatLon0.09_PT057H.grib2 2026-04-30 02:56 659K
20260430T00Z_MSC_RDPS_WindV_IsbL-0950_RLatLon0.09_PT057H.grib2 2026-04-30 02:56 658K
20260430T00Z_MSC_RDPS_WindV_IsbL-0970_RLatLon0.09_PT057H.grib2 2026-04-30 02:56 800K
20260430T00Z_MSC_RDPS_WindV_IsbL-0985_RLatLon0.09_PT057H.grib2 2026-04-30 02:56 793K
20260430T00Z_MSC_RDPS_WindV_IsbL-1000_RLatLon0.09_PT057H.grib2 2026-04-30 02:56 786K
20260430T00Z_MSC_RDPS_WindV_IsbL-1015_RLatLon0.09_PT057H.grib2 2026-04-30 02:56 825K